Station KYWF1 - 8724580 - Key West, FL Image indicating link to RSS feed of recent meteorological observations for station KYWF1


Conditions at KYWF1 as of
(9:48 am EDT)
1348 GMT on 04/16/2024:
     

Click on the graph icon in the table below to see a time series plot of the last five days of that observation.

5-day plot - Wind Direction Wind Direction (WDIR): E ( 100 deg true )
5-day plot - Wind Speed Wind Speed (WSPD): 5.1 kts
5-day plot - Wind Gust Wind Gust (GST): 12.0 kts
5-day plot - Atmospheric Pressure Atmospheric Pressure (PRES):30.09 in
5-day plot - Air Temperature Air Temperature (ATMP): 79.2 °F
5-day plot - Water Temperature Water Temperature (WTMP): 77.0 °F
5-day plot - Wind Speed at 10 Meters Wind Speed at 10 meters (WSPD10M): 5.8 kts
5-day plot - Wind Speed at 20 Meters Wind Speed at 20 meters (WSPD20M): 5.8 kts
5-day plot -  Wind Speed, Wind Gust and Atmospheric Pressure Combined plot of Wind Speed, Gust, and Air Pressure
NOS Water Level Observation Network Water Level
Previous observations
TIME
(EDT)
5-day plot - Wind Direction
WDIR
 
5-day plot - Wind Speed
WSPD
kts
5-day plot - Wind Gust
GST
kts
5-day plot - Wave Height
WVHT
ft
5-day plot - Dominant Wave Period
DPD
sec
5-day plot - Average Wave Period
APD
sec
5-day plot - Mean Wave Direction
MWD
 
5-day plot - Atmospheric Pressure
PRES
in
5-day plot - Pressure Tendency
PTDY
in
5-day plot - Air Temperature
ATMP
°F
5-day plot - Water Temperature
WTMP
°F
5-day plot - Dew Point
DEWP
°F
5-day plot - Salinity
SAL
psu
5-day plot - Visibility
VIS
nmi
5-day plot - Tide (above MLLW)
TIDE
ft
2024-04-16 09:42 am E 6.0 12.0----30.09- 79.2 77.0----
2024-04-16 09:36 amESE 8.9 15.0----30.09- 79.0 77.0----
2024-04-16 09:30 am E 8.9 14.0----30.09- 78.3 77.0----
2024-04-16 09:24 am E 8.0 14.0----30.09- 78.3 77.0----
2024-04-16 09:18 am E 6.0 13.0----30.09- 78.6 77.0----
2024-04-16 09:12 am E 6.0 14.0----30.09- 78.1 77.0----
2024-04-16 09:06 am E 6.0 8.9----30.09- 78.8 77.0----
2024-04-16 09:00 am E 7.0 8.9----30.09+0.03 78.1 77.0----
2024-04-16 08:54 am E 8.0 12.0----30.09- 77.9 77.0----
2024-04-16 08:48 am E 4.1 11.1----30.09- 77.4 77.0----
2024-04-16 08:42 am E 6.0 11.1----30.09- 77.4 77.0----
2024-04-16 08:36 am E 5.1 8.9----30.08- 77.0 77.0----
2024-04-16 08:30 am E 4.1 8.0----30.08- 76.5 77.0----
2024-04-16 08:24 am E 4.1 8.9----30.08- 75.7 77.0----
2024-04-16 08:18 amENE 7.0 9.9----30.08- 75.7 77.0----
2024-04-16 08:12 am E 5.1 7.0----30.08- 76.1 77.0----
2024-04-16 08:06 am E 4.1 9.9----30.07- 75.6 77.0----
2024-04-16 08:00 am E 4.1 8.0----30.07+0.02 75.2 77.0----
2024-04-16 07:54 am E 4.1 8.0----30.07- 74.8 77.0----
2024-04-16 07:48 am E 2.9 7.0----30.07- 74.1 77.2----
2024-04-16 07:42 am E 5.1 8.0----30.07- 73.4 77.2----
2024-04-16 07:36 am E 4.1 6.0----30.07- 72.7 77.2----
2024-04-16 07:30 am E 2.9 6.0----30.07- 72.3 77.2----
2024-04-16 07:24 am E 4.1 8.0----30.07- 72.0 77.2----
2024-04-16 07:18 am E 2.9 5.1----30.07- 71.6 77.2----
2024-04-16 07:12 am E 4.1 7.0----30.06- 71.6 77.2----
2024-04-16 07:06 am E 5.1 7.0----30.06- 71.4 77.2----
2024-04-16 07:00 am E 4.1 7.0----30.06+0.01 71.2 77.2----
2024-04-16 06:54 am E 2.9 6.0----30.06- 71.2 77.2----
2024-04-16 06:48 am E 4.1 6.0----30.06- 71.4 77.2----
2024-04-16 06:42 am E 4.1 5.1----30.06- 71.4 77.2----
2024-04-16 06:36 am E 2.9 7.0----30.06- 71.4 77.2----
2024-04-16 06:30 amENE 5.1 7.0----30.05- 71.6 77.2----
2024-04-16 06:24 am E 4.1 8.0----30.05- 71.6 77.2----
2024-04-16 06:18 am E 4.1 7.0----30.05- 71.6 77.2----
2024-04-16 06:12 am E 5.1 8.0----30.05- 71.6 77.2----
2024-04-16 06:06 am E 5.1 7.0----30.05- 71.6 77.2----
2024-04-16 06:00 am E 2.9 8.0----30.05+0.01 71.8 77.2----
2024-04-16 05:54 am E 4.1 6.0----30.05- 71.8 77.2----
2024-04-16 05:48 amENE 4.1 5.1----30.05- 71.8 77.2----
2024-04-16 05:42 amENE 4.1 6.0----30.05- 71.8 77.2----
2024-04-16 05:36 am E 5.1 7.0----30.05- 71.8 77.2----
2024-04-16 05:30 am E 2.9 6.0----30.05- 71.8 77.2----
2024-04-16 05:24 am E 2.9 6.0----30.05- 71.8 77.2----
2024-04-16 05:18 am E 2.9 5.1----30.05- 72.0 77.2----
2024-04-16 05:12 am E 4.1 7.0----30.05- 72.1 77.2----
2024-04-16 05:06 am E 2.9 6.0----30.05- 72.1 77.2----
2024-04-16 05:00 am E 2.9 7.0----30.05-0.01 72.1 77.2----
2024-04-16 04:54 am E 2.9 6.0----30.04- 72.1 77.2----
2024-04-16 04:48 am E 5.1 8.0----30.04- 72.3 77.2----
2024-04-16 04:42 am E 5.1 7.0----30.04- 72.3 77.2----
2024-04-16 04:36 am E 2.9 6.0----30.04- 72.1 77.2----
2024-04-16 04:30 am E 4.1 6.0----30.04- 72.1 77.2----
2024-04-16 04:24 am E 4.1 7.0----30.04- 72.3 77.2----
2024-04-16 04:18 am E 4.1 7.0----30.04- 72.3 77.2----
2024-04-16 04:12 am E 4.1 6.0----30.04- 72.5 77.2----
2024-04-16 04:06 amESE 2.9 7.0----30.04- 72.7 77.2----
2024-04-16 04:00 am E 4.1 7.0----30.04-0.04 72.7 77.2----
2024-04-16 03:54 am E 4.1 6.0----30.05- 72.9 77.2----
2024-04-16 03:48 am E 4.1 7.0----30.05- 72.7 77.2----
2024-04-16 03:42 am E 4.1 6.0----30.05- 72.9 77.2----
2024-04-16 03:36 am E 2.9 8.0----30.05- 72.9 77.2----
2024-04-16 03:30 am E 1.9 5.1----30.05- 72.9 77.2----
2024-04-16 03:24 am E 5.1 8.9----30.05- 73.0 77.2----
2024-04-16 03:18 am E 2.9 7.0----30.05- 73.0 77.2----
2024-04-16 03:12 am E 4.1 8.9----30.05- 73.4 77.2----
2024-04-16 03:06 amESE 7.0 11.1----30.05- 73.4 77.2----
2024-04-16 03:00 am E 5.1 9.9----30.04-0.06 73.2 77.2----
2024-04-16 02:54 am E 5.1 11.1----30.04- 73.2 77.2----
2024-04-16 02:48 amESE 7.0 12.0----30.04- 73.0 77.2----
2024-04-16 02:42 am E 5.1 8.9----30.05- 73.2 77.2----
2024-04-16 02:36 am E 5.1 8.9----30.05- 73.2 77.2----
2024-04-16 02:30 am E 7.0 11.1----30.05- 73.4 77.2----
2024-04-16 02:24 am E 8.0 12.0----30.05- 73.4 77.2----
2024-04-16 02:18 am E 6.0 9.9----30.05- 73.4 77.2----
2024-04-16 02:12 amESE 8.9 12.0----30.06- 73.6 77.4----
2024-04-16 02:06 am E 7.0 11.1----30.06- 73.6 77.4----
2024-04-16 02:00 am E 7.0 14.0----30.06-0.04 73.6 77.4----
2024-04-16 01:54 am E 7.0 11.1----30.06- 73.4 77.4----
2024-04-16 01:48 am E 5.1 9.9----30.06- 73.4 77.4----
2024-04-16 01:42 am E 7.0 14.0----30.07- 73.4 77.4----
2024-04-16 01:36 am E 7.0 12.0----30.07- 73.4 77.4----
2024-04-16 01:30 am E 7.0 14.0----30.07- 73.6 77.4----
2024-04-16 01:24 am E 5.1 14.0----30.08- 73.6 77.4----
2024-04-16 01:18 am E 8.0 13.0----30.08- 73.6 77.4----
2024-04-16 01:12 am E 7.0 12.0----30.08- 73.4 77.4----
2024-04-16 01:06 am E 4.1 9.9----30.09- 73.4 77.4----
2024-04-16 01:00 am E 5.1 12.0----30.09+0.00 73.6 77.4----
2024-04-16 12:54 am E 6.0 12.0----30.09- 73.6 77.4----
2024-04-16 12:48 am E 6.0 12.0----30.09- 73.8 77.4----
2024-04-16 12:42 amESE 7.0 12.0----30.09- 73.6 77.4----
2024-04-16 12:36 am E 8.0 12.0----30.09- 73.6 77.4----
2024-04-16 12:30 am E 7.0 11.1----30.10- 73.4 77.4----
2024-04-16 12:24 am E 5.1 12.0----30.10- 73.4 77.4----
2024-04-16 12:18 am E 7.0 11.1----30.10- 73.2 77.4----
2024-04-16 12:12 am E 5.1 9.9----30.10- 73.4 77.4----
2024-04-16 12:06 am E 5.1 9.9----30.10- 73.4 77.4----
2024-04-16 12:00 am E 6.0 13.0----30.11+0.02 73.4 77.4----
2024-04-15 11:54 pm E 4.1 8.9----30.11- 73.4 77.4----
2024-04-15 11:48 pm E 5.1 8.9----30.11- 73.6 77.4----
2024-04-15 11:42 pm E 5.1 9.9----30.11- 73.6 77.4----
2024-04-15 11:36 pm E 8.9 13.0----30.11- 73.6 77.5----
2024-04-15 11:30 pm E 7.0 12.0----30.11- 73.8 77.4----
2024-04-15 11:24 pm E 6.0 12.0----30.11- 73.6 77.4----
2024-04-15 11:18 pm E 5.1 12.0----30.10- 73.8 77.4----
2024-04-15 11:12 pm E 7.0 14.0----30.10- 73.9 77.4----
2024-04-15 11:06 pm E 6.0 12.0----30.10- 73.9 77.4----
2024-04-15 11:00 pm E 7.0 14.0----30.10+0.02 73.9 77.4----
2024-04-15 10:54 pm E 7.0 11.1----30.10- 74.1 77.5----
2024-04-15 10:48 pm E 8.9 13.0----30.10- 74.1 77.5----
2024-04-15 10:42 pm E 7.0 13.0----30.10- 74.1 77.5----
2024-04-15 10:36 pm E 7.0 13.0----30.10- 74.1 77.5----
2024-04-15 10:30 pm E 8.0 12.0----30.10-- 77.5----
2024-04-15 10:24 pm E 11.1 15.0----30.10-- 77.5----
2024-04-15 10:18 pm E 6.0 13.0----30.10- 74.1 77.5----
2024-04-15 10:12 pm E 6.0 15.0----30.10- 74.3 77.5----
2024-04-15 10:06 pm E 8.0 12.0----30.10- 74.3 77.5----
2024-04-15 10:00 pm E 8.0 11.1----30.09+0.04 74.3 77.5----
2024-04-15 09:54 pm E 8.0 15.0----30.09- 74.3 77.5----
2024-04-15 09:48 pm E 7.0 14.0----30.09- 74.3 77.5----
2024-04-15 09:42 pm E 8.0 15.0----30.09- 74.3 77.5----
2024-04-15 09:36 pm E 9.9 17.1----30.09- 74.3 77.5----
2024-04-15 09:30 pmESE 9.9 15.9----30.09- 74.3 77.5----
2024-04-15 09:24 pm E 8.0 14.0----30.09- 74.5 77.5----
2024-04-15 09:18 pm E 8.9 14.0----30.09- 74.5 77.5----
2024-04-15 09:12 pm E 8.9 15.9----30.09- 74.5 77.5----
2024-04-15 09:06 pm E 8.9 14.0----30.08- 74.5 77.5----
2024-04-15 09:00 pm E 8.0 14.0----30.08+0.03- 77.5----
2024-04-15 08:54 pmESE 7.0 14.0----30.08-- 77.5----
2024-04-15 08:48 pm E 7.0 15.0----30.08- 74.7 77.5----
2024-04-15 08:42 pm E 7.0 18.1----30.08- 74.7 77.5----
2024-04-15 08:36 pm E 7.0 14.0----30.08- 74.7 77.5----
2024-04-15 08:30 pm E 8.9 14.0----30.07- 74.7 77.5----
2024-04-15 08:24 pmESE 8.0 13.0----30.07- 74.8 77.5----
2024-04-15 08:18 pm E 7.0 12.0----30.07-- 77.5----
2024-04-15 08:12 pmESE 7.0 11.1----30.07-- 77.5----
2024-04-15 08:06 pm E 8.9 14.0----30.07-- 77.5----
2024-04-15 08:00 pm E 7.0 11.1----30.07+0.02 75.0 77.5----
2024-04-15 07:54 pm E 7.0 11.1----30.07- 75.2 77.5----
2024-04-15 07:48 pmESE 8.9 14.0----30.07- 75.4 77.7----
2024-04-15 07:42 pm E 8.9 14.0----30.06- 75.7 77.7----
2024-04-15 07:36 pmESE 11.1 17.1----30.06- 76.5 77.7----
2024-04-15 07:30 pm E 9.9 15.0----30.06- 77.4 77.7----
2024-04-15 07:24 pmESE 8.0 12.0----30.06- 78.3 77.7----
2024-04-15 07:18 pmESE 8.9 13.0----30.06- 78.8 77.7----
2024-04-15 07:00 pm E 9.9 13.0----30.06+0.00 80.4 77.7----
2024-04-15 06:54 pm E 7.0 12.0----30.06- 80.4 77.7----
2024-04-15 06:48 pmESE 7.0 12.0----30.06- 81.5 77.7----
2024-04-15 06:42 pmESE 9.9 13.0----30.06- 81.5 77.7----
2024-04-15 06:36 pm E 6.0 15.0----30.06- 81.3 77.7----
2024-04-15 06:30 pmESE 8.9 13.0----30.06-- 77.7----
2024-04-15 06:24 pmESE 9.9 14.0----30.06-- 77.7----
2024-04-15 06:18 pmESE 7.0 12.0----30.06- 82.6 77.7----
2024-04-15 06:12 pmESE 8.0 13.0----30.06- 81.9 77.7----
2024-04-15 06:06 pm E 8.0 14.0----30.06- 81.7 77.7----
2024-04-15 06:00 pm SE 8.0 13.0----30.06-0.01 81.5 77.5----
2024-04-15 05:54 pmESE 8.0 12.0----30.06- 82.2 77.5----
2024-04-15 05:48 pmESE 6.0 12.0----30.06- 82.0 77.5----
2024-04-15 05:42 pmESE 9.9 14.0----30.06- 81.9 77.5----
2024-04-15 05:36 pmESE 7.0 14.0----30.06- 82.2 77.5----
2024-04-15 05:30 pmESE 7.0 13.0----30.06- 81.9 77.5----
2024-04-15 05:24 pmESE 8.9 14.0----30.06- 82.0 77.5----
2024-04-15 05:18 pmESE 9.9 14.0------ 81.5 77.5----
2024-04-15 05:12 pmESE 8.0 14.0------ 81.1 77.5----
2024-04-15 05:06 pm SE 9.9 15.0------ 80.8 77.5----
2024-04-15 05:00 pmESE 8.9 14.0----30.06-0.03 80.8 77.5----
2024-04-15 04:54 pmESE 9.9 15.0----30.06- 80.4 77.5----
2024-04-15 04:48 pm SE 8.0 14.0----30.06- 80.8 77.5----
2024-04-15 04:42 pm E 8.0 13.0----30.06- 80.6 77.5----
2024-04-15 04:36 pmESE 8.0 15.0----30.06- 80.6 77.5----
2024-04-15 04:30 pmESE 8.9 15.0----30.06- 80.8 77.5----
2024-04-15 04:24 pm SE 9.9 15.0----30.06- 80.2 77.4----
2024-04-15 04:18 pm SE 7.0 12.0----30.06- 80.2 77.4----
2024-04-15 04:12 pm SE 11.1 15.0----30.05- 80.4 77.5----
2024-04-15 04:06 pm SE 8.9 13.0----30.05- 80.8 77.5----
2024-04-15 04:00 pmESE 7.0 12.0----30.06-0.05 81.3 77.5----
2024-04-15 03:54 pmESE 8.0 14.0----30.06- 81.0 77.4----
2024-04-15 03:48 pm SE 11.1 15.0----30.06- 81.0 77.4----
2024-04-15 03:42 pm SE 7.0 13.0----30.06- 81.0 77.5----
2024-04-15 03:36 pmESE 8.9 14.0----30.06- 81.0 77.4----
2024-04-15 03:30 pmESE 6.0 13.0----30.07- 81.1 77.4----
2024-04-15 03:24 pmESE 9.9 14.0----30.07- 81.3 77.4----
2024-04-15 03:18 pm SE 7.0 13.0----30.07- 81.3 77.4----
2024-04-15 03:12 pmESE 8.9 14.0----30.07- 81.3 77.4----
2024-04-15 03:06 pmESE 6.0 13.0----30.07- 81.7 77.4----
2024-04-15 03:00 pm SE 9.9 14.0----30.07-0.05 79.5 77.4----
2024-04-15 02:54 pmESE 8.9 14.0----30.07- 80.1 77.4----
2024-04-15 02:48 pmESE 11.1 15.0----30.07- 79.7 77.4----
2024-04-15 02:42 pmESE 11.1 15.0----30.07- 79.7 77.4----
2024-04-15 02:36 pmESE 9.9 15.9----30.08- 80.6 77.2----
2024-04-15 02:30 pmESE 8.9 15.9----30.08- 81.0 77.2----
2024-04-15 02:24 pm SE 9.9 14.0----30.08- 80.8 77.2----
2024-04-15 02:18 pmESE 8.9 15.9----30.08- 80.6 77.2----
2024-04-15 02:12 pmESE 8.0 14.0----30.08- 81.0 77.2----
2024-04-15 02:06 pmESE 9.9 13.0----30.09- 80.6 77.2----
2024-04-15 02:00 pmESE 8.9 17.1----30.09-0.03 81.0 77.2----
2024-04-15 01:54 pm SE 9.9 15.0----30.09- 81.3 77.2----
2024-04-15 01:48 pmESE 8.9 14.0----30.09- 81.1 77.2----
2024-04-15 01:42 pm SE 9.9 15.0----30.09- 80.8 77.2----
2024-04-15 01:36 pm SE 9.9 14.0----30.09- 80.1 77.2----
2024-04-15 01:30 pmESE 8.0 15.9----30.10- 80.8 77.2----
2024-04-15 01:24 pm SE 7.0 13.0----30.10- 81.0 77.2----
2024-04-15 01:18 pmESE 7.0 14.0----30.10- 81.3 77.2----
2024-04-15 01:12 pm SE 11.1 15.0----30.10- 81.0 77.2----
2024-04-15 01:06 pm SE 7.0 14.0----30.11- 81.0 77.2----
2024-04-15 01:00 pmESE 9.9 15.0----30.11-0.01 80.4 77.2----
2024-04-15 12:54 pmESE 8.0 14.0----30.11- 80.6 77.2----
2024-04-15 12:48 pm SE 8.9 14.0----30.11- 80.8 77.0----
2024-04-15 12:42 pm SE 8.9 14.0----30.11- 80.2 77.2----
2024-04-15 12:36 pm SE 9.9 13.0----30.11- 79.7 77.2----
2024-04-15 12:30 pmESE 7.0 14.0----30.11- 80.2 77.2----
2024-04-15 12:24 pm SE 11.1 15.9----30.11- 79.7 77.2----
2024-04-15 12:18 pmESE 7.0 12.0----30.11- 80.4 77.2----
2024-04-15 12:12 pmESE 9.9 14.0----30.12- 80.2 77.4----
2024-04-15 12:06 pmESE 11.1 14.0----30.12- 80.4 77.2----
2024-04-15 12:00 pmESE 9.9 13.0----30.12+0.01 79.9 77.2----
2024-04-15 11:54 am SE 9.9 14.0----30.12- 80.1 77.2----
2024-04-15 11:48 amESE 8.9 14.0----30.12- 80.1 77.2----
2024-04-15 11:42 am SE 12.0 15.0----30.12- 80.1 77.2----
2024-04-15 11:36 amESE 7.0 14.0----30.12- 80.6 77.2----
2024-04-15 11:30 amESE 8.9 15.9----30.12- 80.4 77.2----
2024-04-15 11:24 amESE 4.1 13.0----30.12- 80.4 77.2----
2024-04-15 11:18 amESE 7.0 12.0----30.12- 79.9 77.2----
2024-04-15 11:12 amESE 6.0 12.0----30.12- 80.8 77.2----
2024-04-15 11:06 amESE 7.0 14.0----30.12- 81.0 77.2----
2024-04-15 11:00 amESE 8.9 13.0----30.12+0.02 81.1 77.0----
2024-04-15 10:54 amESE 8.9 13.0----30.12- 79.7 77.0----
2024-04-15 10:48 amESE 7.0 15.0----30.12- 78.8 77.2----
2024-04-15 10:42 amESE 7.0 13.0----30.12- 79.2 77.2----
2024-04-15 10:36 amESE 8.9 14.0----30.11- 79.2 77.0----
2024-04-15 10:30 am E 6.0 15.0----30.11-- 77.0----
2024-04-15 10:24 amESE 7.0 13.0----30.11-- 77.0----
2024-04-15 10:18 amESE 7.0 12.0----30.11- 79.9 77.0----
2024-04-15 10:12 amESE 8.9 13.0----30.12- 79.9 77.0----
2024-04-15 10:06 am E 6.0 11.1----30.11- 78.8 77.0----
2024-04-15 10:00 amESE 7.0 11.1----30.11+0.04 77.4 77.0----
2024-04-15 09:54 am E 4.1 14.0----30.11- 77.0 77.0----